Home > Weather > Paterson > Past weeks

Flag for U.S.A. Weather for the Past 2 Weeks in Paterson, New Jersey, U.S.A.

Now
-1 °F

Sunny.


Feels Like: -17 °F
Forecast: 2 / 17 °F
Wind: 10 mph from Northwest

Location: Essex County Airport

Current Time: Feb 14, 2016 at 8:48:00 AM

Latest Report: Feb 14, 2016 at 7:53 AM


Visibility: 10 mi

Pressure: 30.55 "Hg

Humidity: 41%

Dew point: -19 °F

Location of PatersonLocation

Historic Weather in Paterson — Graph

°F

Paterson Temperature Yesterday

Maximum temperature yesterday: 20 °F (at 12:53 AM)
Minimum temperature yesterday: 5 °F (at 8:53 PM)
Average temperature yesterday: 15 °F

High & Low Weather Summary for the Past Weeks

 TemperatureHumidityPressure
High59 °F (Feb 1, 11:53 AM)97% (Feb 3, 3:53 PM)30.55 "Hg (Feb 3, 3:53 PM)
Low-2 °F (Feb 14, 6:53 AM)23% (Feb 13, 2:53 PM)29.59 "Hg (Feb 9, 2:53 PM)
Average34 °F59%30.02 "Hg
* Reported Jan 30 7:53 AM — Feb 14 7:53 AM, Paterson, Weather by CustomWeather, © 2016

Note: Actual official high and low records may vary slightly from our data, if they occured in-between our weather recording intervals... More about our weather records

Advertising

Paterson Weather History for the Previous 24 Hours

 ConditionsComfort  
Time TempWeatherWind HumidityBarometerVisibility
7:53 AM
Sun, Feb 14
-1 °FSunny.10 mph41%30.55 "Hg10 mi
6:53 AM-2 °FSunny.10 mph43%30.53 "Hg10 mi
5:53 AM0 °FClear.10 mph41%30.49 "Hg10 mi
4:53 AM1 °FClear.17 mph40%30.44 "Hg10 mi
3:53 AM2 °FClear.10 mph49%30.42 "Hg10 mi
2:53 AM4 °FClear.12 mph40%30.39 "Hg10 mi
1:53 AM4 °FClear.8 mph38%30.37 "Hg10 mi
12:53 AM5 °FClear.12 mph35%30.35 "Hg10 mi
11:53 PM
Sat, Feb 13
5 °FClear.18 mph35%30.34 "Hg10 mi
10:53 PM5 °FClear.17 mph35%30.33 "Hg10 mi
9:53 PM5 °FClear.13 mph40%30.34 "Hg10 mi
8:53 PM5 °FClear.21 mph36%30.34 "Hg10 mi
7:53 PM6 °FClear.15 mph35%30.34 "Hg10 mi
6:53 PM8 °FClear.13 mph30%30.31 "Hg10 mi
5:53 PM9 °FPassing clouds.17 mph29%30.27 "Hg10 mi
4:53 PM11 °FSunny.17 mph24%30.24 "Hg10 mi
3:53 PM13 °FSunny.22 mph23%30.20 "Hg10 mi
2:53 PM14 °FPassing clouds.23 mph23%30.16 "Hg10 mi
1:53 PM15 °FPartly sunny.21 mph26%30.13 "Hg10 mi
12:53 PM18 °FPartly sunny.21 mph26%30.11 "Hg10 mi
11:53 AM18 °FPartly sunny.12 mphN/A30.10 "Hg10 mi
10:53 AM20 °FScattered clouds.18 mphN/A30.08 "Hg10 mi
9:53 AM20 °FPassing clouds.25 mph36%30.05 "Hg10 mi
8:53 AM20 °FPartly sunny.10 mph45%30.03 "Hg10 mi
Weather by CustomWeather, © 2016

See weather overviewHow to use our weather pages